Shinsei — JD3674 — position and weather

sailwx.info

Track history (hours):
 
Tides and Currents Weather Stations Pressure Air Temp Water Temp Dewpoint Dewpoint Depression Visibility Wind Speed Wind Dir Waves Ship Positions

Shinsei

Last reported at 2018-Jun-19 10:26 UTC. Time now 2018-Jun-19 10:29 UTC.
Position N 35°15' E 139°46'.

Length 74 m; draft 4.9 m.

Type: Cargo ship. MMSI: 431005241.

Date/timePositionNaut miles runAvg speedWind from/ knotsBaromVisibWave heightAir tempDewpointWater temp
2018-Jun-19 10:26N 35°15' E 139°46'511.9
2018-Jun-19 10:01N 35°19' E 139°43'611.2
2018-Jun-19 09:30N 35°25' E 139°43'611.9
2018-Jun-19 09:00N 35°29' E 139°49'12 1.0
2018-Jun-18 20:51N 35°38' E 139°59'0 0.0
2018-Jun-18 20:22N 35°38' E 139°59'0 0.0
2018-Jun-18 20:00N 35°38' E 139°59'0 0.0
2018-Jun-18 14:59N 35°38' E 139°59'0 0.0
2018-Jun-18 14:29N 35°38' E 139°59'0 0.0
2018-Jun-18 13:54N 35°38' E 139°59'5 0.1
2018-Jun-16 19:50N 35°33' E 139°55'411.0
2018-Jun-16 19:30N 35°30' E 139°53'510.9
2018-Jun-16 19:00N 35°26' E 139°48'611.5
2018-Jun-16 18:30N 35°21' E 139°45'610.8
2018-Jun-16 17:58N 35°15' E 139°47'511.2
2018-Jun-16 17:30N 35°10' E 139°47'24510.3
2018-Jun-15 17:48N 33°48' E 135°07'413.1
2018-Jun-15 17:29N 33°51' E 135°04'612.3
2018-Jun-15 16:59N 33°57' E 135°02'612.2
2018-Jun-15 16:30N 34°02' E 135°02'612.5
2018-Jun-15 15:59N 34°09' E 135°02'612.3
2018-Jun-15 15:30N 34°15' E 135°03'613.1
2018-Jun-15 15:00N 34°21' E 135°06'612.7
2018-Jun-15 14:30N 34°26' E 135°11'612.7
2018-Jun-15 13:59N 34°30' E 135°16'612.7
2018-Jun-15 13:29N 34°35' E 135°21'5 9.2
2018-Jun-15 12:58N 34°35' E 135°27'1 0.0
2018-Jun-14 06:58N 34°34' E 135°27'5 9.7
2018-Jun-14 06:29N 34°38' E 135°23'4 0.9
2018-Jun-14 02:12N 34°39' E 135°28'0 0.0
2018-Jun-14 01:54N 34°39' E 135°28'0 0.0
2018-Jun-14 00:28N 34°39' E 135°28'0 0.0
2018-Jun-13 23:13N 34°39' E 135°28'0 0.7
2018-Jun-13 23:01N 34°39' E 135°28'1 2.9
2018-Jun-13 22:30N 34°40' E 135°27'0 0.0
2018-Jun-13 22:00N 34°40' E 135°27'0 0.0
2018-Jun-13 02:29N 34°40' E 135°27'2 3.5
2018-Jun-13 02:00N 34°39' E 135°25'611.7
2018-Jun-13 01:31N 34°36' E 135°20'612.2
2018-Jun-13 01:01N 34°31' E 135°15'611.1
2018-Jun-13 00:31N 34°27' E 135°11'611.4
2018-Jun-12 23:59N 34°22' E 135°07'612.1
2018-Jun-12 23:30N 34°17' E 135°03'611.8
2018-Jun-12 23:00N 34°11' E 135°02'612.1
2018-Jun-12 22:31N 34°05' E 135°02'612.1
2018-Jun-12 22:00N 33°59' E 135°02'  
Track history (hours):
 
Tides and Currents Weather Stations Pressure Air Temp Water Temp Dewpoint Dewpoint Depression Visibility Wind Speed Wind Dir Waves Ship Positions

Shinsei

Last reported at 2018-Jun-19 10:26 UTC. Time now 2018-Jun-19 10:29 UTC.
Position N 35°15' E 139°46'.

Length 74 m; draft 4.9 m.

Type: Cargo ship. MMSI: 431005241.

Date/timePositionNaut miles runAvg speedWind from/ knotsBaromVisibWave heightAir tempDewpointWater temp
2018-Jun-19 10:26N 35°15' E 139°46'511.9
2018-Jun-19 10:01N 35°19' E 139°43'611.2
2018-Jun-19 09:30N 35°25' E 139°43'611.9
2018-Jun-19 09:00N 35°29' E 139°49'12 1.0
2018-Jun-18 20:51N 35°38' E 139°59'0 0.0
2018-Jun-18 20:22N 35°38' E 139°59'0 0.0
2018-Jun-18 20:00N 35°38' E 139°59'0 0.0
2018-Jun-18 14:59N 35°38' E 139°59'0 0.0
2018-Jun-18 14:29N 35°38' E 139°59'0 0.0
2018-Jun-18 13:54N 35°38' E 139°59'5 0.1
2018-Jun-16 19:50N 35°33' E 139°55'411.0
2018-Jun-16 19:30N 35°30' E 139°53'510.9
2018-Jun-16 19:00N 35°26' E 139°48'611.5
2018-Jun-16 18:30N 35°21' E 139°45'610.8
2018-Jun-16 17:58N 35°15' E 139°47'511.2
2018-Jun-16 17:30N 35°10' E 139°47'24510.3
2018-Jun-15 17:48N 33°48' E 135°07'413.1
2018-Jun-15 17:29N 33°51' E 135°04'612.3
2018-Jun-15 16:59N 33°57' E 135°02'612.2
2018-Jun-15 16:30N 34°02' E 135°02'612.5
2018-Jun-15 15:59N 34°09' E 135°02'612.3
2018-Jun-15 15:30N 34°15' E 135°03'613.1
2018-Jun-15 15:00N 34°21' E 135°06'612.7
2018-Jun-15 14:30N 34°26' E 135°11'612.7
2018-Jun-15 13:59N 34°30' E 135°16'612.7
2018-Jun-15 13:29N 34°35' E 135°21'5 9.2
2018-Jun-15 12:58N 34°35' E 135°27'1 0.0
2018-Jun-14 06:58N 34°34' E 135°27'5 9.7
2018-Jun-14 06:29N 34°38' E 135°23'4 0.9
2018-Jun-14 02:12N 34°39' E 135°28'0 0.0
2018-Jun-14 01:54N 34°39' E 135°28'0 0.0
2018-Jun-14 00:28N 34°39' E 135°28'0 0.0
2018-Jun-13 23:13N 34°39' E 135°28'0 0.7
2018-Jun-13 23:01N 34°39' E 135°28'1 2.9
2018-Jun-13 22:30N 34°40' E 135°27'0 0.0
2018-Jun-13 22:00N 34°40' E 135°27'0 0.0
2018-Jun-13 02:29N 34°40' E 135°27'2 3.5
2018-Jun-13 02:00N 34°39' E 135°25'611.7
2018-Jun-13 01:31N 34°36' E 135°20'612.2
2018-Jun-13 01:01N 34°31' E 135°15'611.1
2018-Jun-13 00:31N 34°27' E 135°11'611.4
2018-Jun-12 23:59N 34°22' E 135°07'612.1
2018-Jun-12 23:30N 34°17' E 135°03'611.8
2018-Jun-12 23:00N 34°11' E 135°02'612.1
2018-Jun-12 22:31N 34°05' E 135°02'612.1
2018-Jun-12 22:00N 33°59' E 135°02'  

Dump ship's entire track history